owner,sensor,date,latitude,longitude,vertical_datum,sea_water_temperature,qcFlag
Chevron,ioos:station:wmo:42876:1,2019-11-01T00:02:00Z,28.3056,-88.2022,8.7,27.4,11111222
Chevron,ioos:station:wmo:42876:1,2019-11-01T00:12:00Z,28.3056,-88.2022,8.5,27.3,11111222
Chevron,ioos:station:wmo:42876:1,2019-11-01T00:22:00Z,28.3056,-88.2022,8.8,27.4,11111222
Chevron,ioos:station:wmo:42876:1,2019-11-01T00:32:00Z,28.3056,-88.2022,8.8,27.4,11111222
Chevron,ioos:station:wmo:42876:1,2019-11-01T00:42:00Z,28.3056,-88.2022,8.7,27.4,11111222
Chevron,ioos:station:wmo:42876:1,2019-11-01T00:52:00Z,28.3056,-88.2022,8.9,27.4,11111222
Chevron,ioos:station:wmo:42876:1,2019-11-01T01:02:00Z,28.3056,-88.2022,8.8,27.4,11111222
Chevron,ioos:station:wmo:42876:1,2019-11-01T01:12:00Z,28.3056,-88.2022,8.7,27.4,11111222
Chevron,ioos:station:wmo:42876:1,2019-11-01T01:22:00Z,28.3056,-88.2022,8.6,27.4,11111222
Chevron,ioos:station:wmo:42876:1,2019-11-01T01:32:00Z,28.3056,-88.2022,8.5,27.4,11111222
Chevron,ioos:station:wmo:42876:1,2019-11-01T01:42:00Z,28.3056,-88.2022,8.7,27.4,11111222
Chevron,ioos:station:wmo:42876:1,2019-11-01T01:53:00Z,28.3056,-88.2022,8.7,27.4,11111222
Chevron,ioos:station:wmo:42876:1,2019-11-01T02:03:00Z,28.3056,-88.2022,8.5,27.4,11111222
Chevron,ioos:station:wmo:42876:1,2019-11-01T02:13:00Z,28.3056,-88.2022,8.7,27.4,11111222
Chevron,ioos:station:wmo:42876:1,2019-11-01T02:23:00Z,28.3056,-88.2022,8.3,27.3,11111222
Chevron,ioos:station:wmo:42876:1,2019-11-01T02:33:00Z,28.3056,-88.2022,8.6,27.3,11111222
Chevron,ioos:station:wmo:42876:1,2019-11-01T02:43:00Z,28.3056,-88.2022,8.4,27.3,11111222
Chevron,ioos:station:wmo:42876:1,2019-11-01T02:53:00Z,28.3056,-88.2022,8.5,27.3,11111222
Chevron,ioos:station:wmo:42876:1,2019-11-01T03:03:00Z,28.3056,-88.2022,8.7,27.3,11111222
Chevron,ioos:station:wmo:42876:1,2019-11-01T03:13:00Z,28.3056,-88.2022,8.7,27.3,11111222
Chevron,ioos:station:wmo:42876:1,2019-11-01T03:23:00Z,28.3056,-88.2022,8.6,27.3,11111222
Chevron,ioos:station:wmo:42876:1,2019-11-01T03:33:00Z,28.3056,-88.2022,8.8,27.3,11111222
Chevron,ioos:station:wmo:42876:1,2019-11-01T03:43:00Z,28.3056,-88.2022,8.6,27.3,11111222
Chevron,ioos:station:wmo:42876:1,2019-11-01T03:53:00Z,28.3056,-88.2022,8.6,27.3,11111222
Chevron,ioos:station:wmo:42876:1,2019-11-01T04:03:00Z,28.3056,-88.2022,8.6,27.3,11111222
Chevron,ioos:station:wmo:42876:1,2019-11-01T04:13:00Z,28.3056,-88.2022,8.5,27.3,11111222
Chevron,ioos:station:wmo:42876:1,2019-11-01T04:23:00Z,28.3056,-88.2022,8.4,27.3,11111222
Chevron,ioos:station:wmo:42876:1,2019-11-01T04:33:00Z,28.3056,-88.2022,8.3,27.2,11111222
Chevron,ioos:station:wmo:42876:1,2019-11-01T04:43:00Z,28.3056,-88.2022,8.5,27.2,11111222
Chevron,ioos:station:wmo:42876:1,2019-11-01T04:53:00Z,28.3056,-88.2022,8.4,27.2,11111222
Chevron,ioos:station:wmo:42876:1,2019-11-01T05:03:00Z,28.3056,-88.2022,8.5,27.2,11111222
Chevron,ioos:station:wmo:42876:1,2019-11-01T05:13:00Z,28.3056,-88.2022,8.5,27.2,11111222
Chevron,ioos:station:wmo:42876:1,2019-11-01T05:23:00Z,28.3056,-88.2022,8.4,27.2,11111222
Chevron,ioos:station:wmo:42876:1,2019-11-01T05:33:00Z,28.3056,-88.2022,8.3,27.2,11111222
Chevron,ioos:station:wmo:42876:1,2019-11-01T05:43:00Z,28.3056,-88.2022,8.5,27.2,11111222
Chevron,ioos:station:wmo:42876:1,2019-11-01T05:53:00Z,28.3056,-88.2022,8.5,27.3,11111222
Chevron,ioos:station:wmo:42876:1,2019-11-01T06:03:00Z,28.3056,-88.2022,8.5,27.3,11111222
Chevron,ioos:station:wmo:42876:1,2019-11-01T06:13:00Z,28.3056,-88.2022,8.8,27.3,11111222
Chevron,ioos:station:wmo:42876:1,2019-11-01T06:23:00Z,28.3056,-88.2022,8.6,27.3,11111222
Chevron,ioos:station:wmo:42876:1,2019-11-01T06:33:00Z,28.3056,-88.2022,8.7,27.3,11111222
Chevron,ioos:station:wmo:42876:1,2019-11-01T06:43:00Z,28.3056,-88.2022,8.9,27.3,11111222
Chevron,ioos:station:wmo:42876:1,2019-11-01T06:53:00Z,28.3056,-88.2022,8.7,27.3,11111222
Chevron,ioos:station:wmo:42876:1,2019-11-01T07:03:00Z,28.3056,-88.2022,8.7,27.3,11111222
Chevron,ioos:station:wmo:42876:1,2019-11-01T07:13:00Z,28.3056,-88.2022,9.1,27.3,11111222
Chevron,ioos:station:wmo:42876:1,2019-11-01T07:23:00Z,28.3056,-88.2022,8.8,27.3,11111222
Chevron,ioos:station:wmo:42876:1,2019-11-01T07:33:00Z,28.3056,-88.2022,8.9,27.3,11111222
Chevron,ioos:station:wmo:42876:1,2019-11-01T07:43:00Z,28.3056,-88.2022,8.8,27.3,11111222
Chevron,ioos:station:wmo:42876:1,2019-11-01T07:53:00Z,28.3056,-88.2022,8.7,27.3,11111222
Chevron,ioos:station:wmo:42876:1,2019-11-01T08:03:00Z,28.3056,-88.2022,8.7,27.2,11111222
Chevron,ioos:station:wmo:42876:1,2019-11-01T08:13:00Z,28.3056,-88.2022,8.6,27.2,11111222
Chevron,ioos:station:wmo:42876:1,2019-11-01T08:23:00Z,28.3056,-88.2022,8.9,27.2,11111222
Chevron,ioos:station:wmo:42876:1,2019-11-01T08:33:00Z,28.3056,-88.2022,8.7,27.2,11111222
Chevron,ioos:station:wmo:42876:1,2019-11-01T08:43:00Z,28.3056,-88.2022,8.7,27.2,11111222
Chevron,ioos:station:wmo:42876:1,2019-11-01T08:53:00Z,28.3056,-88.2022,8.6,27.2,11111222
Chevron,ioos:station:wmo:42876:1,2019-11-01T09:03:00Z,28.3056,-88.2022,8.6,27.2,11111222
Chevron,ioos:station:wmo:42876:1,2019-11-01T09:13:00Z,28.3056,-88.2022,8.3,27.1,11111222
Chevron,ioos:station:wmo:42876:1,2019-11-01T09:23:00Z,28.3056,-88.2022,8.4,27.1,11111222
Chevron,ioos:station:wmo:42876:1,2019-11-01T09:33:00Z,28.3056,-88.2022,8.6,27.1,11111222
Chevron,ioos:station:wmo:42876:1,2019-11-01T09:43:00Z,28.3056,-88.2022,8.4,27.1,11111222
Chevron,ioos:station:wmo:42876:1,2019-11-01T09:53:00Z,28.3056,-88.2022,8.5,27.1,11111222
Chevron,ioos:station:wmo:42876:1,2019-11-01T10:03:00Z,28.3056,-88.2022,8.5,27.1,11111222
Chevron,ioos:station:wmo:42876:1,2019-11-01T10:13:00Z,28.3056,-88.2022,8.5,27.1,11111222
Chevron,ioos:station:wmo:42876:1,2019-11-01T10:23:00Z,28.3056,-88.2022,8.0,27.1,11111222
Chevron,ioos:station:wmo:42876:1,2019-11-01T10:33:00Z,28.3056,-88.2022,8.2,27.1,11111222
Chevron,ioos:station:wmo:42876:1,2019-11-01T10:43:00Z,28.3056,-88.2022,7.8,27.1,11111222
Chevron,ioos:station:wmo:42876:1,2019-11-01T10:53:00Z,28.3056,-88.2022,8.1,27.1,11111222
Chevron,ioos:station:wmo:42876:1,2019-11-01T11:03:00Z,28.3056,-88.2022,8.1,27.1,11111222
Chevron,ioos:station:wmo:42876:1,2019-11-01T11:13:00Z,28.3056,-88.2022,8.0,27.1,11111222
Chevron,ioos:station:wmo:42876:1,2019-11-01T11:23:00Z,28.3056,-88.2022,7.9,27.1,11111222
Chevron,ioos:station:wmo:42876:1,2019-11-01T11:33:00Z,28.3056,-88.2022,7.9,27.1,11111222
Chevron,ioos:station:wmo:42876:1,2019-11-01T11:43:00Z,28.3056,-88.2022,7.8,27.1,11111222
Chevron,ioos:station:wmo:42876:1,2019-11-01T11:53:00Z,28.3056,-88.2022,7.9,27.1,11111222
Chevron,ioos:station:wmo:42876:1,2019-11-01T12:03:00Z,28.3056,-88.2022,7.9,27.1,11111222
Chevron,ioos:station:wmo:42876:1,2019-11-01T12:13:00Z,28.3056,-88.2022,7.5,27.1,11111222
Chevron,ioos:station:wmo:42876:1,2019-11-01T12:23:00Z,28.3056,-88.2022,7.7,27.1,11111222
Chevron,ioos:station:wmo:42876:1,2019-11-01T12:33:00Z,28.3056,-88.2022,7.7,27.0,11111222
Chevron,ioos:station:wmo:42876:1,2019-11-01T12:43:00Z,28.3056,-88.2022,7.4,27.0,11111222
Chevron,ioos:station:wmo:42876:1,2019-11-01T12:53:00Z,28.3056,-88.2022,7.4,27.0,11111222
Chevron,ioos:station:wmo:42876:1,2019-11-01T13:03:00Z,28.3056,-88.2022,7.5,27.0,11111222
Chevron,ioos:station:wmo:42876:1,2019-11-01T13:13:00Z,28.3056,-88.2022,7.4,27.0,11111222
Chevron,ioos:station:wmo:42876:1,2019-11-01T13:23:00Z,28.3056,-88.2022,7.4,27.0,11111222
Chevron,ioos:station:wmo:42876:1,2019-11-01T13:33:00Z,28.3056,-88.2022,7.4,27.0,11111222
Chevron,ioos:station:wmo:42876:1,2019-11-01T13:43:00Z,28.3056,-88.2022,7.4,27.0,11111222
Chevron,ioos:station:wmo:42876:1,2019-11-01T13:53:00Z,28.3056,-88.2022,7.1,27.0,11111222
Chevron,ioos:station:wmo:42876:1,2019-11-01T14:03:00Z,28.3056,-88.2022,7.2,27.0,11111222
Chevron,ioos:station:wmo:42876:1,2019-11-01T14:13:00Z,28.3056,-88.2022,7.0,27.0,11111222
Chevron,ioos:station:wmo:42876:1,2019-11-01T14:23:00Z,28.3056,-88.2022,7.2,27.0,11111222
Chevron,ioos:station:wmo:42876:1,2019-11-01T14:33:00Z,28.3056,-88.2022,7.2,27.0,11111222
Chevron,ioos:station:wmo:42876:1,2019-11-01T14:43:00Z,28.3056,-88.2022,7.0,27.0,11111222
Chevron,ioos:station:wmo:42876:1,2019-11-01T14:53:00Z,28.3056,-88.2022,7.2,27.0,11111222
Chevron,ioos:station:wmo:42876:1,2019-11-01T15:03:00Z,28.3056,-88.2022,7.1,27.0,11111222
Chevron,ioos:station:wmo:42876:1,2019-11-01T15:13:00Z,28.3056,-88.2022,7.4,27.0,11111222
Chevron,ioos:station:wmo:42876:1,2019-11-01T15:23:00Z,28.3056,-88.2022,7.4,27.0,11111222
Chevron,ioos:station:wmo:42876:1,2019-11-01T15:33:00Z,28.3056,-88.2022,7.5,27.0,11111222
Chevron,ioos:station:wmo:42876:1,2019-11-01T15:43:00Z,28.3056,-88.2022,7.4,27.0,11111222
Chevron,ioos:station:wmo:42876:1,2019-11-01T15:53:00Z,28.3056,-88.2022,7.7,27.0,11111222
Chevron,ioos:station:wmo:42876:1,2019-11-01T16:03:00Z,28.3056,-88.2022,8.0,26.9,11111222
Chevron,ioos:station:wmo:42876:1,2019-11-01T16:13:00Z,28.3056,-88.2022,7.9,26.9,11111222
Chevron,ioos:station:wmo:42876:1,2019-11-01T16:23:00Z,28.3056,-88.2022,7.9,26.9,11111222
Chevron,ioos:station:wmo:42876:1,2019-11-01T16:33:00Z,28.3056,-88.2022,7.9,26.9,11111222
Chevron,ioos:station:wmo:42876:1,2019-11-01T16:43:00Z,28.3056,-88.2022,8.3,26.9,11111222
Chevron,ioos:station:wmo:42876:1,2019-11-01T16:53:00Z,28.3056,-88.2022,8.1,26.9,11111222
Chevron,ioos:station:wmo:42876:1,2019-11-01T17:03:00Z,28.3056,-88.2022,8.2,26.9,11111222
Chevron,ioos:station:wmo:42876:1,2019-11-01T17:13:00Z,28.3056,-88.2022,8.2,26.9,11111222
Chevron,ioos:station:wmo:42876:1,2019-11-01T17:23:00Z,28.3056,-88.2022,8.1,26.9,11111222
Chevron,ioos:station:wmo:42876:1,2019-11-01T17:33:00Z,28.3056,-88.2022,8.5,26.9,11111222
Chevron,ioos:station:wmo:42876:1,2019-11-01T17:43:00Z,28.3056,-88.2022,8.5,26.9,11111222
Chevron,ioos:station:wmo:42876:1,2019-11-01T17:53:00Z,28.3056,-88.2022,8.4,26.9,11111222
Chevron,ioos:station:wmo:42876:1,2019-11-01T18:03:00Z,28.3056,-88.2022,8.3,26.9,11111222
Chevron,ioos:station:wmo:42876:1,2019-11-01T18:13:00Z,28.3056,-88.2022,8.3,26.9,11111222
Chevron,ioos:station:wmo:42876:1,2019-11-01T18:23:00Z,28.3056,-88.2022,8.9,26.9,11111222
Chevron,ioos:station:wmo:42876:1,2019-11-01T18:33:00Z,28.3056,-88.2022,9.0,26.9,11111222
Chevron,ioos:station:wmo:42876:1,2019-11-01T18:43:00Z,28.3056,-88.2022,8.9,26.9,11111222
Chevron,ioos:station:wmo:42876:1,2019-11-01T18:53:00Z,28.3056,-88.2022,9.0,26.9,11111222
Chevron,ioos:station:wmo:42876:1,2019-11-01T19:03:00Z,28.3056,-88.2022,8.6,26.9,11111222
Chevron,ioos:station:wmo:42876:1,2019-11-01T19:13:00Z,28.3056,-88.2022,9.0,26.9,11111222
Chevron,ioos:station:wmo:42876:1,2019-11-01T19:24:00Z,28.3056,-88.2022,9.2,26.9,11111222
Chevron,ioos:station:wmo:42876:1,2019-11-01T19:34:00Z,28.3056,-88.2022,9.1,26.9,11111222
Chevron,ioos:station:wmo:42876:1,2019-11-01T19:44:00Z,28.3056,-88.2022,8.9,26.9,11111222
Chevron,ioos:station:wmo:42876:1,2019-11-01T19:54:00Z,28.3056,-88.2022,8.9,26.9,11111222
Chevron,ioos:station:wmo:42876:1,2019-11-01T20:04:00Z,28.3056,-88.2022,9.2,26.9,11111222
Chevron,ioos:station:wmo:42876:1,2019-11-01T20:14:00Z,28.3056,-88.2022,8.9,26.9,11111222
Chevron,ioos:station:wmo:42876:1,2019-11-01T20:24:00Z,28.3056,-88.2022,9.1,26.9,11111222
Chevron,ioos:station:wmo:42876:1,2019-11-01T20:34:00Z,28.3056,-88.2022,8.9,26.9,11111222
Chevron,ioos:station:wmo:42876:1,2019-11-01T20:44:00Z,28.3056,-88.2022,9.1,26.9,11111222
Chevron,ioos:station:wmo:42876:1,2019-11-01T20:54:00Z,28.3056,-88.2022,8.8,26.9,11111222
Chevron,ioos:station:wmo:42876:1,2019-11-01T21:04:00Z,28.3056,-88.2022,9.0,26.9,11111222
Chevron,ioos:station:wmo:42876:1,2019-11-01T21:14:00Z,28.3056,-88.2022,9.1,26.9,11111222
Chevron,ioos:station:wmo:42876:1,2019-11-01T21:24:00Z,28.3056,-88.2022,8.8,26.9,11111222
Chevron,ioos:station:wmo:42876:1,2019-11-01T21:34:00Z,28.3056,-88.2022,8.7,26.9,11111222
Chevron,ioos:station:wmo:42876:1,2019-11-01T21:44:00Z,28.3056,-88.2022,8.5,26.9,11111222
Chevron,ioos:station:wmo:42876:1,2019-11-01T21:54:00Z,28.3056,-88.2022,8.6,26.9,11111222
Chevron,ioos:station:wmo:42876:1,2019-11-01T22:04:00Z,28.3056,-88.2022,8.6,26.9,11111222
Chevron,ioos:station:wmo:42876:1,2019-11-01T22:14:00Z,28.3056,-88.2022,9.0,26.9,11111222
Chevron,ioos:station:wmo:42876:1,2019-11-01T22:24:00Z,28.3056,-88.2022,8.3,26.9,11111222
Chevron,ioos:station:wmo:42876:1,2019-11-01T22:34:00Z,28.3056,-88.2022,8.1,26.9,11111222
Chevron,ioos:station:wmo:42876:1,2019-11-01T22:44:00Z,28.3056,-88.2022,8.2,26.9,11111222
Chevron,ioos:station:wmo:42876:1,2019-11-01T22:54:00Z,28.3056,-88.2022,8.3,26.9,11111222
Chevron,ioos:station:wmo:42876:1,2019-11-01T23:04:00Z,28.3056,-88.2022,8.0,26.9,11111222
Chevron,ioos:station:wmo:42876:1,2019-11-01T23:14:00Z,28.3056,-88.2022,8.1,26.9,11111222
Chevron,ioos:station:wmo:42876:1,2019-11-01T23:24:00Z,28.3056,-88.2022,8.1,26.9,11111222
Chevron,ioos:station:wmo:42876:1,2019-11-01T23:34:00Z,28.3056,-88.2022,8.1,26.9,11111222
Chevron,ioos:station:wmo:42876:1,2019-11-01T23:44:00Z,28.3056,-88.2022,8.2,26.9,11111222
Chevron,ioos:station:wmo:42876:1,2019-11-01T23:54:00Z,28.3056,-88.2022,8.2,26.9,11111222
Chevron,ioos:station:wmo:42876:1,2019-11-02T00:04:00Z,28.3056,-88.2022,8.4,26.9,11111222
Chevron,ioos:station:wmo:42876:1,2019-11-02T00:14:00Z,28.3056,-88.2022,8.2,26.9,11111222
Chevron,ioos:station:wmo:42876:1,2019-11-02T00:24:00Z,28.3056,-88.2022,8.2,26.9,11111222
Chevron,ioos:station:wmo:42876:1,2019-11-02T00:34:00Z,28.3056,-88.2022,8.3,26.9,11111222
Chevron,ioos:station:wmo:42876:1,2019-11-02T00:44:00Z,28.3056,-88.2022,8.2,26.9,11111222
Chevron,ioos:station:wmo:42876:1,2019-11-02T00:54:00Z,28.3056,-88.2022,8.0,26.9,11111222
Chevron,ioos:station:wmo:42876:1,2019-11-02T01:04:00Z,28.3056,-88.2022,8.0,26.8,11111222
Chevron,ioos:station:wmo:42876:1,2019-11-02T01:14:00Z,28.3056,-88.2022,8.0,26.8,11111222
Chevron,ioos:station:wmo:42876:1,2019-11-02T01:24:00Z,28.3056,-88.2022,8.0,26.8,11111222
Chevron,ioos:station:wmo:42876:1,2019-11-02T01:34:00Z,28.3056,-88.2022,7.9,26.9,11111222
Chevron,ioos:station:wmo:42876:1,2019-11-02T01:44:00Z,28.3056,-88.2022,7.9,26.8,11111222
Chevron,ioos:station:wmo:42876:1,2019-11-02T01:54:00Z,28.3056,-88.2022,8.0,26.8,11111222
Chevron,ioos:station:wmo:42876:1,2019-11-02T02:04:00Z,28.3056,-88.2022,7.8,26.8,11111222
Chevron,ioos:station:wmo:42876:1,2019-11-02T02:14:00Z,28.3056,-88.2022,8.2,26.9,11111222
Chevron,ioos:station:wmo:42876:1,2019-11-02T02:24:00Z,28.3056,-88.2022,8.3,26.9,11111222
Chevron,ioos:station:wmo:42876:1,2019-11-02T02:34:00Z,28.3056,-88.2022,8.1,26.9,11111222
Chevron,ioos:station:wmo:42876:1,2019-11-02T02:44:00Z,28.3056,-88.2022,8.2,26.9,11111222
Chevron,ioos:station:wmo:42876:1,2019-11-02T02:54:00Z,28.3056,-88.2022,8.0,26.9,11111222
Chevron,ioos:station:wmo:42876:1,2019-11-02T03:04:00Z,28.3056,-88.2022,8.3,26.9,11111222
Chevron,ioos:station:wmo:42876:1,2019-11-02T03:14:00Z,28.3056,-88.2022,8.0,26.9,11111222
Chevron,ioos:station:wmo:42876:1,2019-11-02T03:24:00Z,28.3056,-88.2022,8.1,26.8,11111222
Chevron,ioos:station:wmo:42876:1,2019-11-02T03:34:00Z,28.3056,-88.2022,8.1,26.8,11111222
Chevron,ioos:station:wmo:42876:1,2019-11-02T03:44:00Z,28.3056,-88.2022,8.0,26.7,11111222
Chevron,ioos:station:wmo:42876:1,2019-11-02T03:54:00Z,28.3056,-88.2022,7.8,26.8,11111222
Chevron,ioos:station:wmo:42876:1,2019-11-02T04:04:00Z,28.3056,-88.2022,7.9,26.8,11111222
Chevron,ioos:station:wmo:42876:1,2019-11-02T04:14:00Z,28.3056,-88.2022,7.8,26.8,11111222
Chevron,ioos:station:wmo:42876:1,2019-11-02T04:24:00Z,28.3056,-88.2022,7.9,26.8,11111222
Chevron,ioos:station:wmo:42876:1,2019-11-02T04:34:00Z,28.3056,-88.2022,7.9,26.8,11111222
Chevron,ioos:station:wmo:42876:1,2019-11-02T04:44:00Z,28.3056,-88.2022,8.0,26.8,11111222
Chevron,ioos:station:wmo:42876:1,2019-11-02T04:54:00Z,28.3056,-88.2022,8.0,26.8,11111222
Chevron,ioos:station:wmo:42876:1,2019-11-02T05:04:00Z,28.3056,-88.2022,8.3,26.8,11111222
Chevron,ioos:station:wmo:42876:1,2019-11-02T05:14:00Z,28.3056,-88.2022,8.0,26.7,11111222
Chevron,ioos:station:wmo:42876:1,2019-11-02T05:24:00Z,28.3056,-88.2022,8.3,26.7,11111222
Chevron,ioos:station:wmo:42876:1,2019-11-02T05:34:00Z,28.3056,-88.2022,7.8,26.7,11111222
Chevron,ioos:station:wmo:42876:1,2019-11-02T05:44:00Z,28.3056,-88.2022,7.8,26.6,11111222
Chevron,ioos:station:wmo:42876:1,2019-11-02T05:54:00Z,28.3056,-88.2022,7.9,26.6,11111222
Chevron,ioos:station:wmo:42876:1,2019-11-02T06:04:00Z,28.3056,-88.2022,8.0,26.6,11111222
Chevron,ioos:station:wmo:42876:1,2019-11-02T06:14:00Z,28.3056,-88.2022,7.8,26.6,11111222
Chevron,ioos:station:wmo:42876:1,2019-11-02T06:24:00Z,28.3056,-88.2022,8.0,26.6,11111222
Chevron,ioos:station:wmo:42876:1,2019-11-02T06:34:00Z,28.3056,-88.2022,8.1,26.6,11111222
Chevron,ioos:station:wmo:42876:1,2019-11-02T06:44:00Z,28.3056,-88.2022,8.2,26.6,11111222
Chevron,ioos:station:wmo:42876:1,2019-11-02T06:54:00Z,28.3056,-88.2022,7.9,26.5,11111222
Chevron,ioos:station:wmo:42876:1,2019-11-02T07:04:00Z,28.3056,-88.2022,7.9,26.6,11111222
Chevron,ioos:station:wmo:42876:1,2019-11-02T07:14:00Z,28.3056,-88.2022,7.8,26.6,11111222
Chevron,ioos:station:wmo:42876:1,2019-11-02T07:24:00Z,28.3056,-88.2022,7.9,26.6,11111222
Chevron,ioos:station:wmo:42876:1,2019-11-02T07:34:00Z,28.3056,-88.2022,7.9,26.6,11111222
Chevron,ioos:station:wmo:42876:1,2019-11-02T07:44:00Z,28.3056,-88.2022,8.0,26.6,11111222
Chevron,ioos:station:wmo:42876:1,2019-11-02T07:54:00Z,28.3056,-88.2022,7.9,26.6,11111222
Chevron,ioos:station:wmo:42876:1,2019-11-02T08:04:00Z,28.3056,-88.2022,7.5,26.6,11111222
Chevron,ioos:station:wmo:42876:1,2019-11-02T08:14:00Z,28.3056,-88.2022,7.9,26.6,11111222
Chevron,ioos:station:wmo:42876:1,2019-11-02T08:24:00Z,28.3056,-88.2022,7.9,26.6,11111222
Chevron,ioos:station:wmo:42876:1,2019-11-02T08:34:00Z,28.3056,-88.2022,7.6,26.6,11111222
Chevron,ioos:station:wmo:42876:1,2019-11-02T08:44:00Z,28.3056,-88.2022,7.9,26.6,11111222
Chevron,ioos:station:wmo:42876:1,2019-11-02T08:54:00Z,28.3056,-88.2022,7.8,26.6,11111222
Chevron,ioos:station:wmo:42876:1,2019-11-02T09:04:00Z,28.3056,-88.2022,7.9,26.6,11111222
Chevron,ioos:station:wmo:42876:1,2019-11-02T09:14:00Z,28.3056,-88.2022,7.9,26.6,11111222
Chevron,ioos:station:wmo:42876:1,2019-11-02T09:24:00Z,28.3056,-88.2022,7.8,26.6,11111222
Chevron,ioos:station:wmo:42876:1,2019-11-02T09:34:00Z,28.3056,-88.2022,8.0,26.7,11111222
Chevron,ioos:station:wmo:42876:1,2019-11-02T09:44:00Z,28.3056,-88.2022,8.3,26.7,11111222
Chevron,ioos:station:wmo:42876:1,2019-11-02T09:54:00Z,28.3056,-88.2022,8.1,26.7,11111222
Chevron,ioos:station:wmo:42876:1,2019-11-02T10:04:00Z,28.3056,-88.2022,8.1,26.7,11111222
Chevron,ioos:station:wmo:42876:1,2019-11-02T10:14:00Z,28.3056,-88.2022,8.2,26.7,11111222
Chevron,ioos:station:wmo:42876:1,2019-11-02T10:24:00Z,28.3056,-88.2022,8.1,26.7,11111222
Chevron,ioos:station:wmo:42876:1,2019-11-02T10:34:00Z,28.3056,-88.2022,8.1,26.7,11111222
Chevron,ioos:station:wmo:42876:1,2019-11-02T10:44:00Z,28.3056,-88.2022,8.0,26.7,11111222
Chevron,ioos:station:wmo:42876:1,2019-11-02T10:54:00Z,28.3056,-88.2022,8.3,26.7,11111222
Chevron,ioos:station:wmo:42876:1,2019-11-02T11:04:00Z,28.3056,-88.2022,8.2,26.7,11111222
Chevron,ioos:station:wmo:42876:1,2019-11-02T11:14:00Z,28.3056,-88.2022,8.0,26.7,11111222
Chevron,ioos:station:wmo:42876:1,2019-11-02T11:24:00Z,28.3056,-88.2022,8.4,26.8,11111222
Chevron,ioos:station:wmo:42876:1,2019-11-02T11:34:00Z,28.3056,-88.2022,8.2,26.8,11111222
Chevron,ioos:station:wmo:42876:1,2019-11-02T11:44:00Z,28.3056,-88.2022,8.3,26.8,11111222
Chevron,ioos:station:wmo:42876:1,2019-11-02T11:54:00Z,28.3056,-88.2022,8.4,26.8,11111222
Chevron,ioos:station:wmo:42876:1,2019-11-02T12:04:00Z,28.3056,-88.2022,7.9,26.8,11111222
Chevron,ioos:station:wmo:42876:1,2019-11-02T12:14:00Z,28.3056,-88.2022,8.3,26.8,11111222
Chevron,ioos:station:wmo:42876:1,2019-11-02T12:24:00Z,28.3056,-88.2022,8.2,26.8,11111222
Chevron,ioos:station:wmo:42876:1,2019-11-02T12:34:00Z,28.3056,-88.2022,8.0,26.8,11111222
Chevron,ioos:station:wmo:42876:1,2019-11-02T12:44:00Z,28.3056,-88.2022,8.2,26.8,11111222
Chevron,ioos:station:wmo:42876:1,2019-11-02T12:54:00Z,28.3056,-88.2022,8.4,26.8,11111222
Chevron,ioos:station:wmo:42876:1,2019-11-02T13:05:00Z,28.3056,-88.2022,8.4,26.8,11111222
Chevron,ioos:station:wmo:42876:1,2019-11-02T13:15:00Z,28.3056,-88.2022,8.3,26.8,11111222
Chevron,ioos:station:wmo:42876:1,2019-11-02T13:25:00Z,28.3056,-88.2022,8.6,26.8,11111222
Chevron,ioos:station:wmo:42876:1,2019-11-02T13:35:00Z,28.3056,-88.2022,8.3,26.8,11111222
Chevron,ioos:station:wmo:42876:1,2019-11-02T13:45:00Z,28.3056,-88.2022,8.3,26.8,11111222
Chevron,ioos:station:wmo:42876:1,2019-11-02T13:55:00Z,28.3056,-88.2022,8.1,26.8,11111222
Chevron,ioos:station:wmo:42876:1,2019-11-02T14:05:00Z,28.3056,-88.2022,8.3,26.8,11111222
Chevron,ioos:station:wmo:42876:1,2019-11-02T14:15:00Z,28.3056,-88.2022,8.3,26.8,11111222
Chevron,ioos:station:wmo:42876:1,2019-11-02T14:25:00Z,28.3056,-88.2022,8.4,26.8,11111222
Chevron,ioos:station:wmo:42876:1,2019-11-02T14:35:00Z,28.3056,-88.2022,8.3,26.8,11111222
Chevron,ioos:station:wmo:42876:1,2019-11-02T14:45:00Z,28.3056,-88.2022,8.5,26.8,11111222
Chevron,ioos:station:wmo:42876:1,2019-11-02T14:55:00Z,28.3056,-88.2022,8.5,26.8,11111222
Chevron,ioos:station:wmo:42876:1,2019-11-02T15:05:00Z,28.3056,-88.2022,8.2,26.8,11111222
Chevron,ioos:station:wmo:42876:1,2019-11-02T15:15:00Z,28.3056,-88.2022,8.3,26.8,11111222
Chevron,ioos:station:wmo:42876:1,2019-11-02T15:25:00Z,28.3056,-88.2022,8.5,26.8,11111222
Chevron,ioos:station:wmo:42876:1,2019-11-02T15:35:00Z,28.3056,-88.2022,8.4,26.8,11111222
Chevron,ioos:station:wmo:42876:1,2019-11-02T15:45:00Z,28.3056,-88.2022,8.4,26.8,11111222
Chevron,ioos:station:wmo:42876:1,2019-11-02T15:55:00Z,28.3056,-88.2022,8.2,26.8,11111222
Chevron,ioos:station:wmo:42876:1,2019-11-02T16:05:00Z,28.3056,-88.2022,8.4,26.8,11111222
Chevron,ioos:station:wmo:42876:1,2019-11-02T16:15:00Z,28.3056,-88.2022,8.4,26.8,11111222
Chevron,ioos:station:wmo:42876:1,2019-11-02T16:25:00Z,28.3056,-88.2022,8.4,26.8,11111222
Chevron,ioos:station:wmo:42876:1,2019-11-02T16:35:00Z,28.3056,-88.2022,8.1,26.8,11111222
Chevron,ioos:station:wmo:42876:1,2019-11-02T16:45:00Z,28.3056,-88.2022,8.4,26.8,11111222
Chevron,ioos:station:wmo:42876:1,2019-11-02T16:55:00Z,28.3056,-88.2022,8.5,26.8,11111222
Chevron,ioos:station:wmo:42876:1,2019-11-02T17:05:00Z,28.3056,-88.2022,8.4,26.8,11111222
Chevron,ioos:station:wmo:42876:1,2019-11-02T17:15:00Z,28.3056,-88.2022,8.4,26.8,11111222
Chevron,ioos:station:wmo:42876:1,2019-11-02T17:25:00Z,28.3056,-88.2022,8.2,26.8,11111222
Chevron,ioos:station:wmo:42876:1,2019-11-02T17:35:00Z,28.3056,-88.2022,8.2,26.8,11111222
Chevron,ioos:station:wmo:42876:1,2019-11-02T17:45:00Z,28.3056,-88.2022,8.3,26.8,11111222
Chevron,ioos:station:wmo:42876:1,2019-11-02T17:55:00Z,28.3056,-88.2022,8.2,26.8,11111222
Chevron,ioos:station:wmo:42876:1,2019-11-02T18:05:00Z,28.3056,-88.2022,8.2,26.8,11111222
Chevron,ioos:station:wmo:42876:1,2019-11-02T18:15:00Z,28.3056,-88.2022,7.9,26.8,11111222
Chevron,ioos:station:wmo:42876:1,2019-11-02T18:25:00Z,28.3056,-88.2022,7.8,26.8,11111222
Chevron,ioos:station:wmo:42876:1,2019-11-02T18:35:00Z,28.3056,-88.2022,7.6,26.8,11111222
Chevron,ioos:station:wmo:42876:1,2019-11-02T18:45:00Z,28.3056,-88.2022,7.8,26.8,11111222
Chevron,ioos:station:wmo:42876:1,2019-11-02T18:55:00Z,28.3056,-88.2022,7.8,26.8,11111222
Chevron,ioos:station:wmo:42876:1,2019-11-02T19:05:00Z,28.3056,-88.2022,7.4,26.8,11111222
Chevron,ioos:station:wmo:42876:1,2019-11-02T19:15:00Z,28.3056,-88.2022,7.7,26.8,11111222
Chevron,ioos:station:wmo:42876:1,2019-11-02T19:25:00Z,28.3056,-88.2022,7.5,26.8,11111222
Chevron,ioos:station:wmo:42876:1,2019-11-02T19:35:00Z,28.3056,-88.2022,7.7,26.8,11111222
Chevron,ioos:station:wmo:42876:1,2019-11-02T19:45:00Z,28.3056,-88.2022,7.7,26.8,11111222
Chevron,ioos:station:wmo:42876:1,2019-11-02T19:55:00Z,28.3056,-88.2022,7.6,26.8,11111222
Chevron,ioos:station:wmo:42876:1,2019-11-02T20:05:00Z,28.3056,-88.2022,7.5,26.8,11111222